Location: Saint-Christophe
(46.1456°N, 0.9480°W)
Time: 06:28:19
(UTC+00:00)

Daily predictions for brighter satellites

Satellite Brightness Start Highest point End
(mag) Time Altitude Azimuth Time Altitude Azimuth Time Altitude Azimuth
Cosmos 1544 3.1 18:30:51 10° S 18:34:31 88° W 18:38:11 10° N
USA 116 3.9 18:32:22 10° NNE 18:35:41 43° E 18:39:21 10° S
Okean-O 2.8 18:31:31 10° S 18:35:57 80° WSW 18:40:24 10° NNW
Okean 2 3.4 18:31:51 10° N 18:36:02 69° E 18:40:10 10° SSE
CZ-2C R/B 3.2 18:35:23 10° SSW 18:36:57 12° S 18:38:29 10° SSE
NOSS 2-2 (D) 4.0 18:36:24 10° S 18:39:26 28° ESE 18:42:41 10° ENE
Iridium 4 Rocket 3.5 18:39:08 10° S 18:44:03 82° E 18:49:30 10° N
CENTAUR R/B 4.0 18:37:12 10° NNW 18:44:11 35° NNE 18:51:56 10° E
YAOGAN 1 2.6 18:40:57 10° SSE 18:45:17 88° WSW 18:49:39 10° NNW
Cosmos 1975 2.8 18:41:30 10° S 18:45:35 81° E 18:49:41 10° N
GP-B 3.7 18:42:13 10° N 18:46:38 65° W 18:51:02 10° SSW
H-2A R/B 2.1 18:44:38 10° SSE 18:49:29 58° ENE 18:54:28 10° N
SJ-11-01 4.3 18:45:25 10° SSE 18:50:04 63° ENE 18:54:44 10° N
ATLAS 3B R/B 4.4 18:45:43 10° NNW 18:50:30 20° NNE 18:55:24 10° ENE
Cosmos 1437 2.4 18:47:36 10° N 18:50:37 82° E 18:53:36 10° SSE
CZ-4 R/B 2.0 18:46:30 10° S 18:50:41 64° WSW 18:54:52 10° NNW
DMSP B5D1-3 4.5 18:46:08 10° NNE 18:51:13 65° ESE 18:56:16 10° S
ISS -3.0 18:50:14 10° SSW 18:53:18 34° SE 18:56:09 12° ENE
USA 238 DEB 4.4 18:49:14 10° NNW 18:56:03 44° NE 19:02:30 13° ESE
USA 238 4.4 18:49:20 10° NNW 18:56:09 44° NE 19:02:35 13° ESE
Cosmos 1842 3.5 18:52:31 10° NNW 18:56:23 74° W 19:00:14 10° S
ARGOS 3.2 18:57:46 10° SSE 19:03:01 60° ENE 19:08:19 10° N
Cosmos 1025 Rocket 3.6 19:01:33 10° N 19:05:39 38° ENE 19:09:45 10° SE
Cosmos 1782 Rocket 3.7 19:01:22 10° SSW 19:05:47 79° W 19:10:15 10° N
CZ-2C R/B 3.4 19:01:27 10° NNE 19:06:23 32° E 19:11:20 10° SSE
Cosmos 1707 2.8 19:05:11 10° N 19:08:58 55° ENE 19:12:44 10° SSE
Cosmos 2151 Rocket 4.3 19:06:46 10° SSE 19:10:44 33° E 19:14:45 10° NNE
USA 186 2.2 19:13:02 18° SE 19:15:02 40° ENE 19:18:06 10° N
CREW DRAGON DEMO-1 DEB 4.4 19:13:25 10° WNW 19:16:06 27° N 19:18:00 15° NE
Ariane Rocket 3.2 19:13:07 10° SE 19:18:00 50° ENE 19:22:54 10° N
SJ-6B 3.3 19:16:15 19° SE 19:18:21 35° ENE 19:21:47 10° N
CZ-2C R/B 3.7 19:13:51 10° S 19:19:01 62° W 19:24:31 10° NNW
Cosmos 1844 4.5 19:14:53 10° SSE 19:19:37 28° ESE 19:24:20 10° NE
FREGAT/IRIS 3.3 19:20:39 27° ENE 19:20:39 27° ENE 19:22:51 10° NNE
Cosmos 2263 Rocket 2.9 19:15:56 10° SW 19:21:24 56° WNW 19:26:56 10° NNE
Cosmos 1072 Rocket 4.4 19:15:49 10° S 19:22:00 73° E 19:28:20 10° NNE
Nadezhda 4 Rocket 4.1 19:17:17 10° N 19:23:14 51° ENE 19:29:10 10° SSE
NOSS 2-2 (C) 3.0 19:20:22 10° SW 19:23:52 85° SE 19:27:45 10° NE
NOSS 3-2 (A) 4.1 19:16:35 10° NW 19:23:57 64° NE 19:30:19 18° ESE
HJ-1C 4.3 19:21:25 10° S 19:24:36 48° W 19:27:50 10° NNW
MOS 1 4.4 19:21:25 11° SE 19:26:42 54° ENE 19:32:15 10° N
Cosmos 1844 Rocket 3.0 19:23:06 10° S 19:28:13 39° ESE 19:33:22 10° NE
Cosmos 2034 Rocket 4.1 19:22:19 10° SSE 19:28:29 54° E 19:34:39 10° NNE
Cosmos 1975 Rocket 4.1 19:25:15 10° NNW 19:29:25 47° W 19:33:33 10° SSW
USA 102 2.6 19:24:06 14° SSE 19:29:49 70° ENE 19:29:58 68° NE
Cosmos 2298 Rocket 4.1 19:25:30 10° S 19:30:39 54° ESE 19:35:51 10° NNE
SPOT 3 Rocket 4.3 19:32:57 25° ESE 19:35:03 34° ENE 19:39:40 10° N
Resurs 01 Rocket 2.7 19:42:54 27° ENE 19:43:19 27° ENE 19:47:04 10° N
USA 234 3.6 19:38:21 10° ENE 19:44:30 42° SE 19:50:38 10° SSW
Cosmos 1867 4.0 19:39:18 10° NW 19:44:41 59° WSW 19:49:02 15° SSE
Lacrosse 5 rocket 3.6 19:42:12 10° WNW 19:45:35 22° N 19:49:05 10° NE
MetOp-A 4.1 19:42:59 18° SSE 19:46:57 70° ENE 19:52:18 10° N
Cosmos 372 Rocket 4.2 19:44:37 10° SSW 19:49:51 74° WNW 19:55:07 10° NNE
Cosmos 1833 Rocket 4.2 19:45:59 10° N 19:50:02 20° NE 19:51:25 18° ENE
OBJECT-B 1.3 19:52:33 43° NE 19:52:33 43° NE 19:55:14 10° N
Meteor 1-15 Rocket 4.2 19:47:23 10° S 19:52:52 60° E 19:58:29 10° NNE
IRS-1A Rocket 4.4 19:47:03 10° SSE 19:52:57 85° WSW 19:58:52 10° NNW
MOS 1 Rocket 4.2 19:49:11 10° N 19:53:30 47° WNW 19:57:37 10° SW
Cosmos 1626 3.8 19:54:10 10° NNE 19:56:03 21° NE 19:56:03 21° NE
NOSS 3-2 (C) 4.1 19:51:23 10° NW 19:58:48 66° NE 20:03:03 31° ESE
DMSP B5D2-2 4.0 19:54:52 10° NNE 20:00:12 76° ESE 20:05:29 10° S
Cosmos 2150 Rocket 4.0 19:54:57 10° SSW 20:00:20 87° ESE 20:05:49 10° NNE
ARIANE 5 R/B 4.0 20:01:02 23° NE 20:01:02 23° NE 20:03:49 10° NNE
Cosmos 1634 Rocket 4.3 19:59:03 32° SE 20:01:09 43° E 20:06:56 10° NNE
Abrixas rocket 2.8 20:00:39 10° WNW 20:03:00 44° NNW 20:03:00 44° NNW
BREEZE-M TANK 2.9 19:54:48 10° WSW 20:03:38 67° SSE 20:04:37 48° ESE
Okean 2 Rocket 4.1 20:02:51 10° SSW 20:07:12 47° WNW 20:11:32 10° N
Cosmos 2285 Rocket 3.9 20:01:57 10° S 20:08:07 61° ESE 20:14:22 10° NNE
Cosmos 1125 Rocket 3.4 20:02:54 10° S 20:08:10 70° ESE 20:13:29 10° NNE
Okean 1 Rocket 3.0 20:08:19 58° SE 20:08:46 62° E 20:13:13 10° NNE
Cosmos 1627 Rocket 4.5 20:11:07 10° N 20:17:29 66° E 20:19:38 42° SE
Resurs 1-3 3.5 20:18:56 66° SSE 20:19:32 90° ENE 20:23:58 10° NNW
Cosmos 1092 Rocket 3.9 20:16:39 10° N 20:22:50 87° E 20:25:37 35° S
Meteor 2-13 Rocket 4.4 20:16:59 10° N 20:23:12 89° W 20:26:05 34° S
Cosmos 1805 3.6 20:24:13 57° N 20:24:13 57° N 20:27:24 10° N
Meteor 2-5 Rocket 3.6 20:18:20 10° N 20:24:00 78° E 20:25:27 52° SSE
Cosmos 2195 Rocket 4.4 20:18:46 10° N 20:25:05 82° E 20:27:20 42° SSE
ATLAS 2AS CENTAUR R/B 3.2 20:18:44 10° S 20:26:10 47° ESE 20:33:39 10° NE
Cosmos 1674 3.2 20:22:56 10° NNW 20:26:43 55° W 20:27:00 53° WSW
Cosmos 2026 Rocket 3.9 20:22:40 10° N 20:29:04 76° E 20:30:54 49° SSE
ISS -2.3 20:26:45 10° W 20:29:08 37° WNW 20:29:08 37° WNW
Cosmos 2082 Rocket 3.6 20:27:51 10° N 20:32:15 23° NE 20:32:16 23° NE
BREEZE-M DEB (TANK) 4.2 20:28:59 10° WSW 20:32:54 85° NNW 20:48:55 10° ENE
Meteor 1-22 Rocket 4.2 20:34:25 63° SE 20:35:04 68° E 20:41:04 10° NNE
CENTAUR R/B 3.1 20:27:47 10° NW 20:35:55 89° SW 20:39:10 45° SE
CZ-2C R/B 3.9 20:35:17 10° NNE 20:38:59 61° N 20:38:59 61° N
Cosmos 1428 Rocket 4.4 20:34:26 10° N 20:40:46 86° E 20:42:07 58° SSE
SPOT 1/Viking Rocket 4.3 20:43:21 39° NE 20:43:21 39° NE 20:47:15 10° N
ATLAS 3B R/B 3.2 20:36:27 10° NNW 20:42:59 45° NE 20:44:10 42° ENE
COSMOS 2406 3.5 20:37:48 10° NNW 20:43:09 52° NE 20:43:09 52° NE
Cosmos 2279 Rocket 4.1 20:44:35 56° ENE 20:44:35 56° ENE 20:50:11 10° NNE
CZ-2C R/B 3.9 20:41:35 10° N 20:46:44 41° WNW 20:51:56 10° SW
Meteor 1-24 Rocket 3.5 20:41:13 10° N 20:46:45 89° W 20:47:08 79° S
USA 238 DEB 4.3 20:40:14 10° NW 20:47:16 56° WSW 20:49:57 38° S
Cosmos 2142 Rocket 4.3 20:47:06 70° ESE 20:47:22 71° E 20:53:35 10° NNE
USA 238 4.3 20:40:20 10° NW 20:47:23 57° WSW 20:50:02 38° S
Cosmos 1269 Rocket 3.9 20:42:51 10° NNW 20:48:00 82° N 20:48:00 82° N
Spot 2 Rocket 4.1 20:51:06 46° NNE 20:51:06 46° NNE 20:54:57 10° N
Exosat Rocket 4.1 20:48:57 10° SW 20:54:25 57° WNW 20:59:21 10° NNE
Terra 3.8 21:02:36 19° NNE 21:02:36 19° NNE 21:04:19 10° N
MetOp-B 4.2 21:01:41 76° NW 21:01:41 76° NW 21:06:39 10° NNW
Cosmos 1844 4.5 20:57:55 10° SW 21:03:28 50° WNW 21:08:58 10° NNE
Lacrosse 4 Rocket 3.8 21:05:22 10° N 21:06:37 17° N 21:06:37 17° N
Cosmos 1844 Rocket 4.1 21:07:01 10° WSW 21:12:07 36° NW 21:17:17 10° NNE
Resurs 01 Rocket 3.3 21:20:29 31° WNW 21:20:29 31° WNW 21:23:46 10° NNW
Lacrosse 5 rocket 3.7 21:22:27 10° NW 21:25:05 21° N 21:25:05 21° N
SPOT 5 4.3 21:28:43 34° N 21:28:43 34° N 21:31:46 10° N
USA 234 3.4 21:24:44 34° NE 21:27:46 70° NNW 21:34:15 10° WSW
Cosmos 1833 Rocket 3.5 21:29:03 10° NNW 21:33:07 49° NNW 21:33:07 49° NNW
Cosmos 1655 Rocket 4.4 21:36:33 10° NNW 21:41:39 59° NW 21:41:39 59° NW
Cosmos 2082 Rocket 3.8 22:11:19 10° NNW 22:14:06 30° NW 22:14:06 30° NW
ATLAS 2AS CENTAUR R/B 3.6 22:09:24 10° WSW 22:17:11 54° NW 22:24:53 10° NE
ATLAS 3B R/B 3.9 22:27:12 10° NW 22:31:25 36° WNW 22:31:25 36° WNW
Cosmos 2278 Rocket 4.3 22:49:46 22° N 22:49:46 22° N 22:52:06 10° NNE
